Location: Unspecified
(0.0000°N, 0.0000°E)
Time: 14:47:51
(UTC+00:00)

Hubble Space Telescope - Pass Details

Date: 13 April 2021
Orbit: 535 x 539 km, 28.5° (Epoch: 16 April)

Event Time Altitude Azimuth Distance (km) Brightness Sun altitude
Rises 20:12:31 0° 257° (WSW) 2,671 5.2 -32.5°
Reaches altitude 10° 20:14:58 10° 267° (W) 1,778 4.2 -33.1°
Enters shadow 20:16:16 18° 279° (W) 1,356 3.5 -33.5°
